Overview Statistics Trail Chart Weather Telemetry Raw packets
 

This is the latest recevied weather packets stored in our database for station/object N3LF. If no packets are shown the sender has not sent any weather packets the latest 10 day(s).

<< 62 63 64 65 66 67 68 >>
Time Temp. Humidity Pressure Rain* Wind** Luminosity Snow
1788191572 32.22° C 64% 1023.2 hPa 0 mm - 573 W/m² -
1788191267 31.67° C 65% 1023 hPa 0 mm - 566 W/m² -
1788190963 32.22° C 65% 1023 hPa 0 mm - 560 W/m² -
1788190662 32.78° C 67% 1022.9 hPa 0 mm - 551 W/m² -
1788190358 32.22° C 67% 1022.9 hPa 0 mm - 540 W/m² -
1788190054 31.67° C 67% 1023 hPa 0 mm - 528 W/m² -
1788189750 32.78° C 66% 1023 hPa 0 mm - 521 W/m² -
1788189450 31.67° C 70% 1022.9 hPa 0 mm - 511 W/m² -
1788189150 31.67° C 71% 1022.9 hPa 0 mm - 499 W/m² -
1788188845 32.78° C 74% 1023.1 hPa 0 mm - 487 W/m² -
1788188540 32.22° C 71% 1023 hPa 0 mm - 474 W/m² -
1788188239 31.67° C 72% 1023 hPa 0 mm - 463 W/m² -
1788187936 31.67° C 72% 1023.1 hPa 0 mm - 451 W/m² -
1788187631 31.11° C 74% 1022.8 hPa 0 mm - 439 W/m² -
1788187328 31.11° C 77% 1023 hPa 0 mm - 426 W/m² -
1788187026 30.56° C 74% 1022.8 hPa 0 mm - 412 W/m² -
1788186722 30.56° C 78% 1022.8 hPa 0 mm - 400 W/m² -
1788186418 30° C 78% 1022.7 hPa 0 mm - 388 W/m² -
1788186113 30° C 80% 1022.6 hPa 0 mm - 371 W/m² -
1788185812 28.89° C 83% 1022.6 hPa 0 mm - 357 W/m² -
1788185507 28.33° C 84% 1022.7 hPa 0 mm - 358 W/m² -
1788185206 28.33° C 85% 1022.7 hPa 0 mm - 349 W/m² -
1788184902 27.22° C 89% 1022.8 hPa 0 mm - 338 W/m² -
1788184599 27.22° C 88% 1022.8 hPa 0 mm - 328 W/m² -
1788184295 27.22° C 88% 1022.6 hPa 0 mm - 316 W/m² -

* Rain latest hour (hover to see other rain measurements)
** Current wind speed in m/s (hover to see current wind gust speed)